Quillayute, WA

1:13 AM PDT on April 26, 2017 (GMT -0700)
Quillayute

Weather History for KUIL - April, 2012

Change the Weather History Date:

Friday, April 20, 2012

  Actual Average Record
Temperature  
Mean Temperature 47 °F 47 °F  
Max Temperature 56 °F 55 °F 77 °F (1991)
Min Temperature 37 °F 39 °F 28 °F (2011)
Degree Days  
Heating Degree Days 18 18  
Month to date heating degree days 378  
Since 1 July heating degree days 4871  
Cooling Degree Days 0 0  
Month to date cooling degree days 0  
Year to date cooling degree days 0  
Moisture  
Dew Point 42 °F    
Average Humidity 84    
Maximum Humidity 100    
Minimum Humidity 43    
Precipitation  
Precipitation T in 0.25 in 0.89 in (2006)
Month to date precipitation 5.57  
Year to date precipitation 41.36  
Sea Level Pressure  
Sea Level Pressure 30.17 in    
Wind  
Wind Speed 4 mph (WSW)    
Max Wind Speed 12 mph    
Max Gust Speed 16 mph    
Visibility 8 miles    
Events Rain    
T = Trace of Precipitation, MM = Missing Value Source: NWS Daily Summary

Daily Weather History Graph

Daily Weather History Graph

Search for Another Location

Airport or City:

Trip Planner

Search our weather history database for the weather conditions in past years. The results will help you decide how hot, cold, wet, or windy it might be!

Date:

Astronomy

Apr. 20, 2012 Rise Set
Actual Time 6:18 AM PDT 8:16 PM PDT
Civil Twilight 5:45 AM PDT 8:49 PM PDT
Nautical Twilight 5:04 AM PDT 9:31 PM PDT
Astronomical Twilight 4:18 AM PDT 10:16 PM PDT
Moon 5:45 AM PDT (4/20) 8:09 PM PDT (4/20)
Length of Visible Light 15h 04m
Length of Day
13h 58m
Waning Crescent, 0% of the Moon is Illuminated
Apr 20
Waning Crescent
Apr 21
New
Apr 29
First Quarter
May 5
Full
May 12
Last Quarter

Hourly Weather History & Observations

Time (PDT) Temp. Windchill Dew Point Humidity Pressure Visibility Wind Dir Wind Speed Gust Speed Precip Events Conditions
12:08 AM 48.2 °F - 46.4 °F 93% 30.05 in 6.0 mi SW 6.9 mph - 0.00 in Rain Light Rain
12:30 AM 48.2 °F - 46.4 °F 93% 30.06 in 5.0 mi SW 5.8 mph - 0.01 in Rain Light Rain
12:45 AM 48.2 °F - 46.4 °F 93% 30.06 in 7.0 mi SW 5.8 mph - 0.02 in Rain Light Rain
12:53 AM 48.0 °F - 46.0 °F 93% 30.07 in 8.0 mi SW 4.6 mph - 0.02 in   Overcast
1:38 AM 48.2 °F - 46.4 °F 93% 30.07 in 6.0 mi SW 3.5 mph - 0.00 in   Overcast
1:51 AM 48.2 °F - 46.4 °F 93% 30.08 in 6.0 mi SSW 3.5 mph - 0.00 in   Overcast
1:53 AM 48.0 °F - 46.9 °F 96% 30.08 in 6.0 mi SSW 3.5 mph - 0.00 in   Overcast
2:12 AM 48.2 °F - 46.4 °F 93% 30.08 in 7.0 mi SW 4.6 mph - N/A   Overcast
2:26 AM 46.4 °F 42.9 °F 46.4 °F 100% 30.09 in 7.0 mi WSW 6.9 mph - N/A   Overcast
2:53 AM 46.9 °F - 46.0 °F 97% 30.10 in 7.0 mi SSW 4.6 mph - 0.00 in Rain Light Rain
3:51 AM 46.4 °F 45.2 °F 44.6 °F 93% 30.11 in 8.0 mi SSW 3.5 mph - 0.00 in   Overcast
3:53 AM 46.0 °F 44.8 °F 45.0 °F 96% 30.12 in 8.0 mi SSW 3.5 mph - 0.00 in   Overcast
4:19 AM 44.6 °F - 44.6 °F 100% 30.12 in 5.0 mi Calm Calm - N/A   Mostly Cloudy
4:50 AM 44.6 °F 43.1 °F 44.6 °F 100% 30.13 in 9.0 mi WSW 3.5 mph - N/A   Mostly Cloudy
4:53 AM 45.0 °F - 44.1 °F 97% 30.13 in 10.0 mi Calm Calm - N/A   Mostly Cloudy
5:25 AM 44.6 °F - 42.8 °F 93% 30.14 in 8.0 mi Calm Calm - N/A   Mostly Cloudy
5:45 AM 42.8 °F - 42.8 °F 100% 30.14 in 1.8 mi Calm Calm - N/A   Mostly Cloudy
5:53 AM 44.1 °F - 43.0 °F 96% 30.14 in 3.0 mi Calm Calm - N/A   Mostly Cloudy
6:02 AM 44.6 °F - 42.8 °F 93% 30.14 in 8.0 mi Calm Calm - N/A   Overcast
6:28 AM 44.6 °F - 42.8 °F 93% 30.15 in 6.0 mi Calm Calm - N/A   Overcast
6:36 AM 44.6 °F - 42.8 °F 93% 30.15 in 6.0 mi Calm Calm - N/A   Overcast
6:53 AM 44.1 °F - 43.0 °F 96% 30.17 in 6.0 mi Calm Calm - N/A   Overcast
7:16 AM 44.6 °F - 44.6 °F 100% 30.17 in 7.0 mi Calm Calm - N/A   Overcast
7:53 AM 46.0 °F - 45.0 °F 96% 30.19 in 8.0 mi Calm Calm - N/A   Mostly Cloudy
8:53 AM 48.9 °F - 44.1 °F 83% 30.21 in 10.0 mi Calm Calm - N/A   Mostly Cloudy
9:21 AM 50.0 °F - 44.6 °F 82% 30.20 in 10.0 mi Calm Calm - N/A   Scattered Clouds
9:53 AM 48.9 °F - 44.1 °F 83% 30.22 in 10.0 mi NW 4.6 mph - N/A   Mostly Cloudy
10:53 AM 50.0 °F - 42.1 °F 74% 30.23 in 10.0 mi WNW 4.6 mph - N/A   Overcast
11:11 AM 51.8 °F - 41.0 °F 67% 30.23 in 10.0 mi Variable 3.5 mph - N/A   Mostly Cloudy
11:53 AM 53.1 °F - 41.0 °F 64% 30.24 in 10.0 mi West 4.6 mph - N/A   Mostly Cloudy
12:53 PM 55.0 °F - 42.1 °F 62% 30.24 in 10.0 mi Variable 6.9 mph - N/A   Clear
1:53 PM 54.0 °F - 37.9 °F 55% 30.25 in 10.0 mi West 8.1 mph - N/A   Clear
2:53 PM 54.0 °F - 35.1 °F 49% 30.25 in 10.0 mi West 8.1 mph - N/A   Clear
3:53 PM 54.0 °F - 36.0 °F 51% 30.25 in 10.0 mi West 10.4 mph - N/A   Clear
4:53 PM 52.0 °F - 36.0 °F 54% 30.24 in 10.0 mi West 6.9 mph - N/A   Clear
5:00 PM - - - N/A% - - North - - N/A   Unknown
5:53 PM 52.0 °F - 37.0 °F 57% 30.23 in 10.0 mi NW 5.8 mph - N/A   Clear
6:53 PM 51.1 °F - 39.9 °F 66% 30.22 in 10.0 mi NNW 6.9 mph - N/A   Clear
7:53 PM 48.0 °F - 39.9 °F 74% 30.21 in 10.0 mi NNW 4.6 mph - N/A   Clear
8:53 PM 44.1 °F - 39.9 °F 85% 30.21 in 10.0 mi Calm Calm - N/A   Clear
9:53 PM 43.0 °F - 39.0 °F 86% 30.21 in 10.0 mi Calm Calm - N/A   Clear
10:53 PM 41.0 °F - 39.0 °F 93% 30.21 in 10.0 mi Calm Calm - N/A   Clear
11:53 PM 37.9 °F 35.5 °F 36.0 °F 93% 30.21 in 10.0 mi NNE 3.5 mph - N/A   Clear